{"data":{"norad_id":63702,"epoch":"2026-09-20T13:08:45.067776Z","epoch_age_seconds":148348,"freshness":"FRESH","line1":"1 63702U 25087F   26263.54774384  .00015149  00000+0  49862-3 0  9992","line2":"2 63702  53.1601  33.0172 0000598  44.4376 315.6674 15.31720308 79055","mean_motion":15.31720308,"eccentricity":5.98e-5,"inclination_deg":53.1601,"raan_deg":33.0172,"arg_perigee_deg":44.4376,"mean_anomaly_deg":315.6674,"bstar":0.00049862,"rev_number":7905,"period_min":94.011941506491,"perigee_km":470.269899579,"apogee_km":471.08901802748,"semimajor_km":6848.8164588032,"source":"CELESTRAK","updated_at":"2026-09-21T09:00:35.063007Z"}}